User: anonymous   Login
Location: Frydek-Mistek
(49.6830°N, 18.3330°E)
Time: 16:45:15
(UTC+02:00)
Language:

Courier 1B Rocket - Orbit

View from above orbital plane
View from above orbital plane
View from above satellite
View from above satellite

Ground track
Ground track

The orbit data is extracted from the following two-line orbital elements,

1 00059U 60013B   15239.16250063  .00000121  00000-0  43061-4 0  9999
2 00059 028.2485 239.5765 0189145 305.6485 052.6582 13.52926114709087
Epoch (UTC): 27 August 2015 03:54:00
Eccentricity: 0.0189145
inclination: 28.2485°
perigee height: 921 km
apogee height: 1202 km
right ascension of ascending node: 239.5765°
argument of perigee: 305.6485°
revolutions per day: 13.52926114
mean anomaly at epoch: 52.6582°
orbit number at epoch: 70908

The dashed part of the orbit path shows where the satellite is in the earth's shadow,  

DLR